La Paz, Mexico

10:27 PM MDT on August 17, 2017 (GMT -0600)
Gen Manuel Marquez De Leon

Weather History for MMLP - April, 2014

Change the Weather History Date:

Friday, April 11, 2014

  Actual Average Record
Temperature  
Mean Temperature 82 °F -  
Max Temperature 103 °F 88 °F 103 °F (2014)
Min Temperature 62 °F 58 °F 50 °F (2005)
Cooling Degree Days 18    
Growing Degree Days 32 (Base 50)    
Moisture  
Dew Point 39 °F    
Average Humidity 22    
Maximum Humidity 55    
Minimum Humidity 8    
Precipitation  
Precipitation 0.00 in - - ()
Sea Level Pressure  
Sea Level Pressure 29.91 in    
Wind  
Wind Speed 8 mph ()    
Max Wind Speed 14 mph    
Max Gust Speed -    
Visibility 10.4 miles    
Events      
Averages and records for this station are not official NWS values.
T = Trace of Precipitation, MM = Missing Value Source: Averaged Metar Reports

Daily Weather History Graph

Daily Weather History Graph

Search for Another Location

Airport or City:

Trip Planner

Search our weather history database for the weather conditions in past years. The results will help you decide how hot, cold, wet, or windy it might be!

Date:

Astronomy

Apr. 11, 2014 Rise Set
Actual Time 7:03 AM MDT 7:41 PM MDT
Civil Twilight 6:40 AM MDT 8:04 PM MDT
Nautical Twilight 6:13 AM MDT 8:31 PM MDT
Astronomical Twilight 5:46 AM MDT 8:59 PM MDT
Moon 4:45 PM MDT (4/11) 4:38 AM MDT (4/11)
Length of Visible Light 13h 24m
Length of Day
12h 37m
Waxing Gibbous, 87% of the Moon is Illuminated
Apr 11
Waxing Gibbous
Apr 15
Full
Apr 22
Last Quarter
Apr 29
New
May 6
First Quarter

Hourly Weather History & Observations

Time (MDT) Temp. Dew Point Humidity Pressure Visibility Wind Dir Wind Speed Gust Speed Precip Events Conditions
2:45 AM 71 °F 53 °F 42% 29.92 in 2 mi South 8.9 mph - -   Clear
5:50 AM 69 °F 51 °F 43% 29.92 in 2 mi South 6.7 mph - -  
6:01 AM 60.8 °F 44.6 °F 55% 29.93 in 10.0 mi South 9.2 mph - N/A   Partly Cloudy
8:44 AM 71.6 °F 44.6 °F 38% 29.94 in 10.0 mi South 9.2 mph - N/A   Clear
8:50 AM 72 °F 43 °F 24% 29.94 in 12 mi South 4.5 mph - -  
9:45 AM 82.4 °F 35.6 °F 19% 29.96 in 10.0 mi SW 6.9 mph - N/A   Clear
10:42 AM 89.6 °F 26.6 °F 10% 29.95 in 12.0 mi SW 6.9 mph - N/A   Clear
11:40 AM 95.0 °F 24.8 °F 8% 29.95 in 12.0 mi NNW 4.6 mph - N/A   Clear
11:50 AM 96 °F 42 °F 8% 29.94 in 19 mi West 4.5 mph - -  
12:40 PM 93.2 °F 26.6 °F 9% 29.93 in 12.0 mi North 10.4 mph - N/A   Clear
1:40 PM 95.0 °F 24.8 °F 8% 29.91 in 12.0 mi North 10.4 mph - N/A   Clear
2:40 PM 96.8 °F 26.6 °F 8% 29.89 in 12.0 mi North 8.1 mph - N/A   Clear
2:50 PM 101 °F 44 °F 8% 29.89 in 19 mi NNW 6.7 mph - -   Clear
3:40 PM 95.0 °F 30.2 °F 10% 29.87 in 12.0 mi North 12.7 mph - N/A   Partly Cloudy
4:53 PM 93.2 °F 28.4 °F 10% 29.86 in 10.0 mi SSW 11.5 mph - N/A   Scattered Clouds
5:42 PM 91.4 °F 32.0 °F 12% 29.86 in 10.0 mi South 13.8 mph - N/A   Scattered Clouds
5:50 PM 96 °F 50 °F 13% 29.85 in 19 mi South 11.2 mph - -   Clear
6:52 PM 84.2 °F 39.2 °F 20% 29.88 in 10.0 mi South 11.5 mph - N/A   Scattered Clouds
7:40 PM 80.6 °F 37.4 °F 21% 29.90 in 10.0 mi South 11.5 mph - N/A   Scattered Clouds
8:50 PM 80 °F 50 °F 24% 29.89 in 2 mi South 8.9 mph - -   Scattered Clouds
8:52 PM 77.0 °F 46.4 °F 34% 29.91 in 10.0 mi South 11.5 mph - N/A   Clear
9:44 PM 73.4 °F 48.2 °F 41% 29.93 in 10.0 mi South 9.2 mph - N/A   Clear
10:48 PM 71.6 °F 44.6 °F 38% 29.95 in 10.0 mi South 11.5 mph - N/A   Clear
11:45 PM 75 °F 53 °F 35% 29.91 in 2 mi South 4.5 mph - -   Mostly Cloudy